User: anonymous   Login
Location: Celina Division
(33.3022°N, 96.7580°W)
Time: 10:39:45
(UTC+00:00)
Language:

METEOR M2 - Orbit

View from above orbital plane
View from above orbital plane
View from above satellite
View from above satellite

Ground track
Ground track

The orbit data is extracted from the following two-line orbital elements,

1 40069U 14037A   24104.88232567  .00000212  00000-0  11694-3 0  9995
2 40069  98.4363 101.9997 0005745 173.2437 186.8819 14.20926891506495
Epoch (UTC): 13 April 2024 21:10:32
Eccentricity: 0.0005745
inclination: 98.4363°
perigee height: 818 km
apogee height: 826 km
right ascension of ascending node: 101.9997°
argument of perigee: 173.2437°
revolutions per day: 14.20926891
mean anomaly at epoch: 186.8819°
orbit number at epoch: 50649

The dashed part of the orbit path shows where the satellite is in the earth's shadow,  

DLR